Weather in Yuzhnyy

Russia / Krasnodar Krai     45°09′44″N   39°01′21″E
temp.,
°C
wind,
m/s
gust,
m/s
humid.,
%
clouds,
%
prec.,
mm/h
press.,
hPa
HPBL,
m
18 may, tue
tue1800:00+14ssw3590100 0.0 101095
03:00+13ssw3494100 0.0 101194
06:00+14sw3691100 0.0 1010181
09:00+18sw58715 0.0 1011921
12:00+21sw575915 0.4 10101459
15:00+23ssw79515 0.8 10092033
18:00+20ssw58659 0.0 1009591
21:00+16sse1178100 0.3 100912
19 may, wed
wed1900:00+15ssw4784100 0.1 1009155
03:00+14w3691100 0.5 1008168
06:00+12wsw4996100 8.5 1010494
09:00+14s5119083 14.5 1012617
12:00+19sw10146769 0.4 10121854
15:00+18sw111773100 1.3 10131819
18:00+17sw10177067 0.4 10131540
21:00+15sw916705 0.4 10141048
20 may, thu
thu2000:00+15sw815711 0.0 1014843
03:00+13sw4118265 0.0 1014335
06:00+13ssw368739 0.0 1014143
09:00+19wsw35595 0.0 1015586
12:00+22s244947 0.0 10141387
15:00+23ese43510 0.0 10121253
18:00+22ene476730 0.0 1011409
21:00+17ene51284100 0.0 1011198
21 may, fri
fri2100:00+15ene410855 0.0 1010174
03:00+14e4689100 0.0 100993
06:00+15ese358682 0.0 100998
09:00+22e34615 0.0 1008256
12:00+27e45515 0.0 1007640
15:00+29e44510 0.0 1006731
18:00+28e35685 0.0 1006204
21:00+22e33875 0.0 100624
22 may, sat
sat2200:00+20e22910 0.0 100519
03:00+19e22925 0.0 100428
06:00+18ne3387100 0.0 100460
09:00+24wsw467378 0.0 1006407
12:00+27nw3463100 0.0 1006469
15:00+28ne3460100 0.0 1006589
18:00+25sse237498 0.0 100753
21:00+19ssw51080100 0.6 1009252